RH
74 68 63 62 67 65 66 56 63 46 46 39 56 63 71 76 74 71 50 42 38 35 34 35 35 37 39 41 42 43 47 50 50 50 50 50 52 52 52 50 45 46 47 49
80 72 72 66 67 64 55 60 54 57 54 63 76 78 80 75 72 66 45 38 35 35 35 36 37 39 41 42 43 45 46 48 47 49 48 51 52 52 51 50 48 48 50 53
69 72 69 72 68 70 65 67 54 62 51 75 78 73 75 64 60 50 39 36 35 35 37 39 39 41 42 43 45 46 47 46 46 46 49 48 48 48 49 47 45 46 46 50
93 79 69 54 63 64 64 67 67 66 73 72 72 66 56 47 43 39 38 37 37 38 39 39 41 43 44 46 47 51 50 49 48 49 49 49 48 48 45 43 43 42 43 44
81 80 62 63 63 69 64 58 67 68 73 64 49 44 43 39 37 38 37 37 37 39 40 41 42 43 46 48 48 50 49 49 49 50 51 48 50 46 43 43 43 43 41 42
90 76 66 54 61 60 46 54 72 64 61 52 47 64 49 42 39 38 36 37 38 39 41 42 39 44 49 50 50 50 48 50 49 51 52 50 47 46 43 42 43 42 44 42
82 83 73 64 56 53 55 48 64 53 50 44 48 47 43 44 40 38 38 38 42 43 42 42 44 49 53 52 54 48 51 52 52 49 49 46 46 47 48 48 48 50 50 48
88 91 74 60 50 50 52 53 48 43 37 42 44 40 40 40 41 40 41 41 42 45 44 45 50 53 54 54 49 51 52 51 48 46 45 47 56 57 56 54 56 56 55 54
74 74 54 46 51 47 46 44 43 36 40 38 38 37 38 41 37 38 41 42 42 44 47 47 49 51 52 47 47 48 48 49 50 51 52 53 60 62 62 58 61 62 61 62
74 49 45 43 41 38 38 37 34 35 36 33 36 38 39 39 41 43 43 43 44 47 48 48 46 47 48 47 46 50 53 55 56 59 61 59 59 63 68 67 69 70 72 76
67 74 68 59 42 36 35 34 36 36 36 38 39 39 40 44 44 45 43 45 48 51 52 53 51 50 50 51 53 57 58 59 62 63 66 66 68 70 66 60 64 83 86 85
84 56 76 77 39 32 33 37 37 39 39 39 40 42 43 44 46 46 48 52 54 54 54 56 56 57 57 57 59 63 64 66 70 69 75 74 67 65 68 73 68 68 68 66
91 92 85 88 40 33 38 39 38 38 40 42 44 44 46 46 46 51 54 55 57 58 58 60 62 64 62 62 65 67 72 72 73 73 76 73 82 84 75 70 67 68 67 68
76 80 86 38 37 37 37 44 43 42 43 45 45 46 47 48 51 55 58 58 60 61 64 66 69 69 64 67 71 75 79 83 79 75 82 90 78 75 70 73 76 73 68 70
38 41 43 39 40 45 42 41 43 44 46 49 52 50 51 54 57 60 62 61 62 70 72 73 74 74 70 74 74 79 80 78 84 94 82 76 78 77 76 76 77 75 72 71
41 39 39 42 44 42 42 44 48 50 53 56 57 58 58 60 64 67 69 70 77 76 74 76 77 74 72 74 80 82 76 81 85 78 81 78 77 78 80 79 77 78 77 79
38 44 42 46 43 41 44 50 53 56 60 65 65 63 65 68 73 76 76 76 78 80 79 79 79 69 73 79 89 76 89 85 78 82 79 77 77 84 80 82 84 82 81 76
39 38 37 38 44 50 56 61 64 69 67 65 66 71 73 77 80 82 83 85 90 90 79 72 72 74 85 87 81 93 84 84 83 83 80 80 85 81 88 88 88 89 86 79
44 50 51 50 56 59 63 67 69 72 71 73 76 76 78 82 86 89 91 94 94 94 78 73 77 86 92 87 83 84 85 87 84 83 82 83 87 86 88 84 87 88 88 86
51 52 55 64 64 66 70 72 78 78 77 79 80 87 90 91 92 94 92 95 89 85 77 77 86 91 89 93 78 86 88 88 90 90 88 90 93 93 92 89 88 90 91 88
59 60 66 68 73 73 75 83 86 87 87 88 92 94 96 95 92 91 95 96 83 76 74 82 91 90 95 88 86 90 90 94 94 95 94 95 96 96 94 93 93 93 93 92
76 77 77 79 84 86 86 90 90 91 92 93 95 91 93 92 92 91 87 92 78 76 85 94 91 90 81 84 92 93 94 95 96 98 98 98 98 97 96 95 95 94 95 94
82 82 83 89 91 92 91 90 92 94 97 93 91 93 94 93 95 98 96 76 83 90 94 91 88 76 81 92 93 96 96 98 99 98 99 98 98 95 96 96 95 95 95 95
88 91 91 87 90 91 94 93 96 94 92 90 88 87 94 98 94 86 81 82 84 92 85 94 85 80 86 93 96 97 98 98 98 99 99 98 92 88 93 96 96 94 95 96
94 90 91 92 95 97 96 97 97 95 95 92 90 89 86 87 92 89 94 92 88 89 92 81 78 80 92 96 97 97 97 100 98 100 99 97 96 97 96 96 97 95 94 94
92 95 95 94 96 98 98 98 98 98 98 97 94 90 89 86 92 94 97 93 96 89 91 93 92 98 97 98 99 99 97 98 94 98 100 99 99 99 99 98 97 97 96 96
90 83 96 94 91 92 95 88 94 98 95 96 96 89 89 94 95 94 92 98 91 90 98 99 97 91 98 97 97 97 96 97 91 96 96 98 99 99 99 99 98 98 97 97
Wind_Speed
3 4 4 5 10 14 10 6 8 6 11 8 12 12 11 8 10 11 10 8 6 6 4 3 2 2 1 2 3 3 5 5 7 8 8 9 9 9 10 10 11 12 13 13
2 3 5 2 3 11 7 2 3 5 5 2 5 10 8 12 12 12 10 8 7 5 4 2 0 2 3 4 5 4 5 6 7 8 9 9 9 10 11 12 12 13 14 14
3 2 4 5 10 12 6 4 8 8 8 7 4 10 15 14 12 12 10 7 6 5 2 2 3 3 4 5 4 5 6 8 9 9 9 10 10 11 12 14 14 15 15 15
4 1 1 3 2 5 4 4 5 5 5 4 7 7 9 7 9 10 8 6 5 3 1 3 2 3 4 4 5 5 7 8 9 10 10 11 12 13 14 13 14 15 16 16
7 5 2 4 6 9 11 9 11 10 8 11 15 11 7 5 5 6 6 5 3 3 2 2 3 4 4 5 5 6 8 9 10 10 11 12 12 13 13 14 14 14 14 15
3 6 9 4 1 2 3 4 9 11 15 20 16 8 5 7 7 7 6 4 2 1 1 4 4 3 4 6 6 8 9 10 10 10 11 12 13 13 13 12 14 13 16 14
3 3 6 3 4 3 6 5 7 10 15 15 5 1 11 9 6 5 4 3 2 2 3 4 4 3 5 6 7 9 9 9 9 10 11 11 13 12 13 14 14 15 16 15
3 3 7 3 4 7 4 5 11 13 9 13 13 15 11 8 7 5 4 3 3 2 4 5 4 3 6 7 9 8 9 10 10 10 9 10 13 13 13 14 15 15 15 14
2 2 2 3 3 3 3 12 6 12 12 16 13 10 8 6 5 3 0 2 2 3 4 5 4 4 6 8 8 9 9 10 11 11 10 10 11 13 12 12 12 13 12 13
5 4 4 5 6 7 8 14 13 13 12 11 12 8 7 5 3 2 2 1 1 3 4 6 5 5 7 9 9 9 10 11 10 11 13 11 9 9 10 11 11 12 13 13
5 3 9 9 6 13 15 15 14 10 8 9 9 6 5 4 2 1 2 2 2 4 5 7 6 7 8 9 9 10 10 10 11 9 11 12 9 9 10 11 14 14 13 13
3 10 6 7 8 13 15 12 11 13 7 5 6 6 4 3 1 1 4 3 4 5 5 7 6 8 8 8 8 10 10 9 8 10 9 9 11 11 17 18 23 26 25 20
6 6 12 15 8 4 12 9 8 8 7 7 4 4 3 2 0 3 4 5 5 6 7 7 7 8 8 8 8 9 10 10 9 10 9 10 10 9 13 11 19 23 23 24
14 19 14 9 7 8 12 8 10 7 6 5 4 3 2 1 2 4 5 5 6 6 6 7 7 9 9 8 8 9 9 16 10 9 8 7 9 9 9 11 12 10 17 20
4 7 12 12 12 9 8 7 7 6 4 3 2 2 2 3 5 5 5 6 5 5 7 6 8 9 8 7 9 9 10 8 9 6 7 10 8 8 8 10 10 10 11 15
10 16 14 14 11 8 7 7 6 3 2 1 1 2 4 4 5 5 6 5 4 6 8 7 9 9 7 8 9 8 8 14 11 7 7 7 7 8 9 9 10 9 10 11
19 12 11 9 7 5 6 4 4 2 0 2 4 4 4 5 5 5 5 5 5 7 8 9 9 8 8 8 9 7 6 6 12 6 7 7 8 8 8 8 8 9 10 11
10 8 8 9 7 6 4 4 2 1 2 2 3 3 4 5 5 5 5 5 5 7 7 7 6 8 7 8 8 4 5 5 6 6 6 7 7 7 7 8 8 9 9 10
10 10 8 7 6 5 3 2 0 2 3 3 3 5 4 5 5 4 5 5 5 6 7 6 11 10 7 8 8 3 4 5 6 6 6 9 7 7 7 8 8 8 9 9
8 7 7 6 4 3 2 1 1 2 4 3 3 4 5 5 4 5 5 5 5 5 7 8 8 6 6 6 8 3 4 5 5 5 6 5 6 6 6 10 9 8 8 8
7 6 6 5 3 2 2 1 1 3 5 3 3 4 4 5 5 4 5 4 5 6 7 11 5 4 3 3 4 3 4 4 4 4 5 5 6 6 6 7 7 7 8 8
3 4 5 4 3 3 3 3 2 2 3 4 3 4 4 5 5 4 5 6 5 11 7 3 3 4 3 6 3 3 3 4 3 3 3 4 4 5 6 7 7 7 8 8
4 3 3 3 3 4 5 4 3 3 3 4 4 4 4 3 3 3 4 4 4 9 1 3 3 7 8 4 3 3 3 4 4 3 3 4 5 6 6 6 7 7 7 8
2 4 3 4 3 3 4 4 3 4 4 4 4 4 3 3 3 3 4 8 11 5 3 2 5 7 8 3 3 3 3 3 3 3 3 8 6 6 6 6 6 6 6 8
4 4 4 5 4 3 4 3 4 4 3 5 5 4 4 3 3 4 3 4 5 3 2 7 7 7 3 3 3 3 3 3 3 3 3 4 5 5 5 5 6 7 7 7
5 3 3 4 3 2 3 2 2 2 3 3 3 3 4 3 3 3 2 3 2 4 2 2 1 3 3 2 2 3 3 4 4 4 3 3 3 4 4 5 5 6 6 6
4 5 2 3 2 3 3 3 3 3 4 3 5 4 4 3 3 1 3 2 3 3 2 2 3 3 2 3 3 3 3 3 6 3 3 3 3 3 4 4 5 5 5 5
Wind_Direction
51 107 131 167 171 170 188 174 162 211 188 212 190 181 170 143 136 137 135 130 130 130 127 118 85 34 359 295 284 264 264 275 277 281 284 287 294 295 288 285 289 290 290 286
45 51 43 104 157 190 208 173 268 123 236 71 81 105 142 155 149 145 144 142 139 133 125 107 218 270 274 269 278 279 294 300 300 302 304 299 292 288 289 289 288 286 284 281
172 88 86 333 205 184 179 182 162 183 205 161 151 164 165 157 150 146 144 143 137 124 151 227 253 254 270 288 299 323 321 309 303 299 294 292 291 290 290 289 287 284 283 280
148 44 238 230 69 167 131 174 167 110 144 136 129 107 108 119 132 134 138 135 131 150 218 268 253 272 290 325 322 310 302 298 296 296 294 292 287 286 286 283 284 286 286 284
145 189 271 325 196 158 167 238 183 143 125 119 117 90 45 115 119 135 138 139 146 169 215 266 298 327 332 312 301 303 298 292 288 284 283 286 284 288 289 291 289 290 287 290
148 153 205 249 124 178 144 290 162 143 150 145 148 143 168 158 128 121 123 128 126 27 2 338 320 333 314 298 302 294 288 279 280 280 280 285 289 293 292 290 292 293 292 290
163 200 286 236 162 158 109 235 126 137 143 148 119 174 136 134 112 116 112 80 72 27 308 291 304 307 284 281 277 277 278 283 282 284 289 289 291 296 296 295 290 290 290 292
103 90 254 144 71 165 141 30 115 114 109 103 106 104 115 116 120 105 68 36 7 299 285 287 291 275 280 281 284 283 287 290 294 294 291 295 294 295 292 292 293 295 294 292
133 157 14 24 34 57 111 124 115 110 121 118 113 115 123 128 107 83 107 251 229 230 285 291 286 273 283 292 295 298 298 297 298 299 296 294 294 295 299 298 296 296 294 291
143 357 54 65 73 82 101 110 108 112 113 113 118 119 117 123 142 174 215 292 317 330 307 296 292 289 278 294 294 299 300 301 302 303 305 307 303 296 296 296 293 290 288 286
78 92 98 51 83 109 102 102 99 89 104 113 115 121 126 129 117 27 337 328 318 310 297 290 293 291 292 298 306 305 302 303 305 303 306 307 298 291 289 288 292 301 303 304
177 161 105 128 119 112 109 113 112 113 103 97 104 108 108 96 104 343 326 321 319 298 283 286 292 293 296 299 299 300 304 305 307 309 304 300 296 296 293 307 316 311 314 312
130 88 102 124 111 82 111 114 109 105 110 111 88 105 112 126 12 316 327 309 300 293 294 293 295 296 297 295 296 297 295 301 299 301 294 297 301 318 313 314 311 314 318 322
104 112 109 151 131 110 112 106 103 95 92 94 105 103 129 196 297 298 290 283 282 283 290 292 298 295 297 297 295 292 290 297 300 293 294 312 314 315 310 314 318 317 320 323
99 92 126 110 105 97 100 102 88 83 79 65 88 143 185 264 275 283 286 289 293 297 291 295 295 294 298 295 297 297 304 303 293 303 318 314 312 306 306 311 316 314 318 326
105 108 109 109 111 107 102 90 96 92 85 56 354 297 266 256 270 284 292 301 321 308 300 300 294 294 297 296 298 297 305 301 321 314 315 311 312 311 315 322 321 320 324 326
112 103 106 104 117 111 98 101 105 104 354 278 269 276 285 292 297 298 306 303 297 288 294 294 291 298 299 298 300 307 297 322 325 318 320 320 312 316 325 323 321 322 325 329
86 89 96 118 126 117 104 99 112 185 227 270 295 296 298 306 291 296 294 298 298 293 291 286 289 295 301 302 305 305 326 315 321 323 322 323 324 330 322 323 320 327 331 335
85 97 96 100 111 117 130 138 159 306 303 303 304 296 293 288 292 288 295 299 290 285 296 303 306 316 301 311 329 344 329 329 329 330 332 332 334 327 335 340 338 340 338 340
87 83 92 95 94 96 106 122 318 299 306 312 300 298 299 293 298 298 294 279 272 272 292 291 311 306 311 308 357 348 340 340 340 337 337 348 332 333 328 345 348 345 342 348
86 87 86 84 77 55 48 24 337 305 302 297 277 285 289 299 305 303 306 308 294 297 309 318 313 307 292 22 19 0 355 348 347 341 339 331 327 334 336 339 338 345 343 346
69 67 60 45 24 335 352 339 318 306 324 324 319 318 317 301 306 300 266 260 288 311 307 297 298 329 10 34 14 8 3 2 348 340 338 337 340 338 340 341 350 352 346 349
56 48 43 31 8 323 325 340 351 334 332 320 306 305 292 275 277 286 301 289 301 300 348 308 8 41 45 35 26 18 17 2 355 350 340 340 353 357 351 352 356 355 349 352
39 32 19 359 346 348 344 333 344 328 307 298 294 289 283 288 296 251 270 298 311 1 3 15 54 62 58 32 22 25 15 9 7 360 356 27 20 12 2 350 340 346 347 347
29 5 358 355 341 332 331 318 325 325 332 312 303 302 298 268 238 282 277 283 340 65 42 30 54 57 40 42 26 23 14 342 23 36 10 12 0 353 350 347 341 357 352 346
3 341 325 325 313 307 296 301 282 285 287 298 295 291 295 285 280 295 293 108 74 76 68 42 54 33 14 10 35 19 22 14 31 6 15 353 346 348 339 337 336 336 335 333
346 349 320 338 313 316 303 302 336 286 306 288 286 278 271 283 293 20 112 89 96 77 67 32 1 37 40 41 22 20 13 14 19 34 9 352 341 324 326 323 315 314 319 326